Tracking 35334 objects as of 12-Sep-2026
HD Live streaming from Space Station
objects crossing your sky now

STARLINK-33559

Track STARLINK-33559 now!
10-day predictions
STARLINK-33559 is classified as:


NORAD ID: 62107
Int'l Code: 2024-220V
Launch date: November 25, 2024
Source: United States (US)
Launch site: AIR FORCE EASTERN TEST RANGE (AFETR)
Your satellite tracking list
Your tracking list is empty




NASA's NSSDC Master Catalog

Two Line Element Set (TLE):
1 62107U 24220V   26254.99825108  .00018268  00000-0  67148-3 0  9991
2 62107  42.9986 233.4564 0000698 227.0931 132.9862 15.27591840101689
Source of the keplerian elements: AFSPC